Location: Gwatt
(46.7204°N, 7.6223°E)
Time: 16:40:31
(UTC+00:00)

deb Explorer IX - Pass Details

Date: 28 January 2021
Orbit: 537 x 1102 km, 38.8° (Epoch: 04 March)

Event Time Altitude Azimuth Distance (km) Brightness Sun altitude
Rises 20:05:06 0° 269° (W) 3,560 ? -37.2°
Reaches altitude 10° 20:08:30 10° 253° (WSW) 2,502 ? -37.8°
Enters shadow 20:10:41 17° 235° (SW) 1,982 ? -38.1°
Maximum altitude 20:12:39 20° 209° (SSW) 1,758 - -38.4°
Drops below altitude 10° 20:16:24 10° 163° (SSE) 2,213 - -39.1°
Sets 20:19:11 0° 146° (SE) 3,027 - -39.5°
